SHT3R EGCC-EGLL

Flight info

Callsign SHT3R
Flight time N/A
Altitude 19000
Route LISTO L612 HON
Aircraft A320/M-SDE3FGHIRWY/LB1

Departure

Time 2026-05-04 10:47
Airport Manchester Airport (EGCC)

Arrival

Time N/A
Airport London Heathrow Airport (EGLL)
Time Latitude Longitude Altitude Speed Heading
2026-05-04 10:13 53.36964 -2.29001 253 ft 0 kts 315°
2026-05-04 10:28 53.36963 -2.28998 253 ft 3 kts 315°
2026-05-04 10:28 53.36946 -2.28965 253 ft 4 kts 298°
2026-05-04 10:28 53.36938 -2.28926 252 ft 4 kts 257°
2026-05-04 10:28 53.36943 -2.28905 252 ft 0 kts 224°
2026-05-04 10:33 53.36937 -2.28915 252 ft 4 kts 225°
2026-05-04 10:33 53.36909 -2.28963 253 ft 7 kts 225°
2026-05-04 10:33 53.36864 -2.29037 253 ft 11 kts 224°
2026-05-04 10:33 53.36799 -2.29092 254 ft 11 kts 188°
2026-05-04 10:34 53.36727 -2.29010 254 ft 12 kts 135°
2026-05-04 10:34 53.36681 -2.28931 254 ft 0 kts 135°
2026-05-04 10:34 53.36679 -2.28929 254 ft 0 kts 135°
2026-05-04 10:34 53.36676 -2.28923 254 ft 4 kts 135°
2026-05-04 10:35 53.36628 -2.28884 254 ft 9 kts 149°
2026-05-04 10:35 53.36591 -2.28810 254 ft 10 kts 113°
2026-05-04 10:35 53.36567 -2.28707 253 ft 9 kts 110°
2026-05-04 10:35 53.36520 -2.28613 253 ft 12 kts 134°
2026-05-04 10:36 53.36460 -2.28513 253 ft 14 kts 135°
2026-05-04 10:36 53.36390 -2.28397 252 ft 14 kts 135°
2026-05-04 10:36 53.36334 -2.28301 252 ft 12 kts 133°
2026-05-04 10:36 53.36275 -2.28199 251 ft 4 kts 133°
2026-05-04 10:37 53.36275 -2.28198 251 ft 0 kts 133°
2026-05-04 10:39 53.36247 -2.28152 251 ft 10 kts 135°
2026-05-04 10:39 53.36185 -2.28049 250 ft 15 kts 137°
2026-05-04 10:39 53.36106 -2.27921 249 ft 15 kts 134°
2026-05-04 10:40 53.36057 -2.27846 249 ft 14 kts 150°
2026-05-04 10:40 53.35941 -2.27841 249 ft 9 kts 185°
2026-05-04 10:40 53.35885 -2.27849 250 ft 9 kts 185°
2026-05-04 10:40 53.35838 -2.27856 250 ft 10 kts 185°
2026-05-04 10:41 53.35755 -2.27867 250 ft 14 kts 187°
2026-05-04 10:41 53.35649 -2.27892 251 ft 15 kts 190°
2026-05-04 10:41 53.35573 -2.28010 252 ft 14 kts 232°
2026-05-04 10:41 53.35491 -2.28126 253 ft 17 kts 207°
2026-05-04 10:42 53.35363 -2.28169 254 ft 19 kts 185°
2026-05-04 10:42 53.35252 -2.28263 255 ft 19 kts 228°
2026-05-04 10:42 53.35163 -2.28443 257 ft 22 kts 231°
2026-05-04 10:42 53.35062 -2.28648 259 ft 24 kts 230°
2026-05-04 10:43 53.34944 -2.28865 262 ft 24 kts 227°
2026-05-04 10:44 53.34678 -2.29329 268 ft 0 kts 197°
2026-05-04 10:45 53.34673 -2.29332 268 ft 2 kts 197°
2026-05-04 10:45 53.34649 -2.29338 268 ft 6 kts 180°
2026-05-04 10:45 53.34592 -2.29331 270 ft 10 kts 166°
2026-05-04 10:45 53.34540 -2.29239 270 ft 13 kts 87°
2026-05-04 10:46 53.34624 -2.29054 267 ft 41 kts 47°
2026-05-04 10:46 53.34948 -2.28372 261 ft 106 kts 51°
2026-05-04 10:46 53.35523 -2.27188 247 ft 154 kts 51°
2026-05-04 10:46 53.36200 -2.25799 805 ft 150 kts 51°
2026-05-04 10:47 53.36853 -2.24448 1403 ft 152 kts 52°
2026-05-04 10:47 53.37486 -2.22920 1741 ft 168 kts 69°
2026-05-04 10:47 53.37568 -2.20879 1952 ft 193 kts 104°
2026-05-04 10:47 53.36810 -2.18887 2192 ft 220 kts 142°
2026-05-04 10:49 53.24347 -2.18343 7419 ft 279 kts 185°
2026-05-04 10:49 53.22400 -2.18642 8253 ft 282 kts 186°
2026-05-04 10:50 53.20446 -2.18946 9128 ft 283 kts 186°
2026-05-04 10:51 53.05263 -2.13608 12874 ft 356 kts 158°
2026-05-04 10:52 53.02960 -2.12023 13554 ft 360 kts 158°
2026-05-04 10:52 53.00630 -2.10422 14175 ft 364 kts 158°
2026-05-04 10:52 52.98277 -2.08808 14787 ft 367 kts 158°
2026-05-04 10:54 52.81374 -1.97226 18908 ft 386 kts 159°
2026-05-04 10:54 52.78925 -1.95553 19035 ft 388 kts 159°
2026-05-04 10:56 52.60523 -1.83064 19058 ft 411 kts 159°
2026-05-04 10:56 52.57880 -1.81278 19058 ft 411 kts 159°
2026-05-04 10:56 52.55237 -1.79497 19055 ft 411 kts 159°
2026-05-04 10:57 52.52593 -1.77712 19054 ft 411 kts 159°
2026-05-04 10:57 52.49946 -1.75926 19052 ft 411 kts 159°
2026-05-04 10:57 52.47307 -1.74151 19056 ft 410 kts 159°
2026-05-04 10:57 52.44664 -1.72381 19058 ft 410 kts 159°
2026-05-04 10:58 52.42022 -1.70614 19056 ft 410 kts 159°
2026-05-04 10:58 52.39387 -1.68852 19057 ft 410 kts 159°
2026-05-04 10:58 52.36771 -1.66968 19057 ft 411 kts 153°
2026-05-04 10:58 52.34360 -1.64463 19059 ft 412 kts 144°
2026-05-04 10:59 52.32163 -1.61424 19051 ft 413 kts 140°
2026-05-04 10:59 52.29993 -1.58355 19056 ft 413 kts 141°
2026-05-04 10:59 52.27818 -1.55288 19056 ft 413 kts 141°
2026-05-04 10:59 52.25644 -1.52227 19056 ft 413 kts 141°
2026-05-04 11:00 52.23468 -1.49167 19053 ft 412 kts 141°